Location: Alphen aan den Rijn
(52.1277°N, 4.6689°E)
Time: 05:26:49
(UTC+02:00)

ISS - Visible Passes

Search period start: 21 October 2021 00:00
Search period end: 31 October 2021 00:00
Orbit: 417 x 423 km, 51.6° (Epoch: 20 October)

Date Brightness Start Highest point End Pass type
(mag) Time Alt. Az. Time Alt. Az. Time Alt. Az.
22 Oct -0.7 07:03:06 10° SSE 07:04:31 12° SE 07:05:55 10° ESE visible
24 Oct -1.6 07:03:24 10° SSW 07:06:11 24° SSE 07:08:59 10° E visible
25 Oct -1.3 06:17:18 13° S 06:18:55 18° SE 06:21:15 10° E visible
26 Oct -0.8 05:32:07 12° SE 05:32:07 12° SE 05:33:03 10° ESE visible
26 Oct -2.8 07:05:05 14° SW 07:07:48 43° SSE 07:11:02 10° E visible
27 Oct -2.5 06:19:43 30° S 06:20:19 33° SSE 06:23:23 10° E visible
28 Oct -1.1 05:34:13 18° ESE 05:34:13 18° ESE 05:35:37 10° E visible
28 Oct -3.6 07:07:11 21° WSW 07:09:16 68° SSE 07:12:38 10° E visible
29 Oct -3.4 06:21:33 55° S 06:21:38 56° SSE 06:24:57 10° E visible
29 Oct -3.7 07:54:58 10° W 07:58:21 84° S 08:01:44 10° E visible
30 Oct -1.2 05:35:49 21° E 05:35:49 21° E 05:37:10 10° E visible
30 Oct -3.8 07:08:46 25° W 07:10:36 84° S 07:13:58 10° E visible
